Location: Heiligenberg
(48.5381°N, 7.3897°E)
Time: 22:00:49
(UTC+00:00)

Cosmos 2366 rocket - Pass Details

Date: 26 May 2022
Orbit: 955 x 997 km, 82.9° (Epoch: 04 July)

Event Time Altitude Azimuth Distance (km) Brightness Sun altitude
Rises 02:36:52 0° 351° (N) 3,647 7.6 -8.5°
Reaches altitude 10° 02:39:22 10° 352° (N) 2,698 6.9 -8.3°
Maximum altitude 02:45:33 84° 82° (E) 972 4.1 -7.5°
Drops below altitude 10° 02:51:44 10° 170° (S) 2,697 6.0 -6.8°
Sets 02:54:14 0° 171° (S) 3,645 6.7 -6.5°
